NOAA 16 DEB

Satellite information

Favourite Embed

Satellite Type and Status

DEBRISIN ORBIT

Key statistics

Satellite NOAA 16 DEB at a glance.

Uptime

9109

Days in orbit

Revolutions

≈ 14.3

Per day

Orbit

SSO

Sun Synchronous Orbit

Inclination

98.7

Latest

Satellite identification and parameters

Extended collection of information and parameters for NOAA 16 DEB.

Object identification

Identified? True

Debris? True

Object name: NOAA 16 DEB

International designator: 2000-055JV

Object number (NORAD): 41376

Object ID (CCSDS): 41376

Country: UNITED STATES OF AMERICA (US)

Current information (Y/N): Y

RCS size: SMALL

Orbital parameters

Period: 100.657 minutes

Inclination: 98.7372 deg

SMA: 7167.871 km

Apoapsis: 801.999 km

Periapsis: 777.474 km

RAAN: 333.186 deg

Eccentricy: 0.00171081

Argument of periapsis: 63.1987 deg

Mean anomaly: 297.0943 deg

Mean motion: 14.30597452 rev/day

Mean motion (dot): 0.00005314 rev/day2

B* drag term: 0.0020483565 1/REarth

Two-line elements (TLE)

Creation date: Aug. 30, 2025, 3:38 a.m.

Reference frame: TEME

Reference center: EARTH

Epoch: Aug. 29, 2025, 12:18 p.m. UTC

TLE line 0: 0 NOAA 16 DEB

TLE line 1: 1 41376U 00055JV 25241.51289862 .00005314 00000-0 20484-2 0 9999

TLE line 2: 2 41376 98.7372 333.1860 0017108 63.1987 297.0943 14.30597452497761

Live tracking on map

Real-time ground track for satellite NOAA 16 DEB.

In-orbit conjunctions

A list of the most updated potential collisions computed for object NOAA 16 DEB.

Target Orbit TCA Probability of collision Miss distance Type
SL-12 R/B(AUX MOTOR) LEO 2025-07-24 10:36:35 0.0002731652 687.0 (m) ROCKET BODY
STELLA SSO 2025-06-18 04:46:31 0.0002425192 709.0 (m) PAYLOAD
SL-8 R/B LEO 2025-04-30 18:05:43 0.0001095252 820.0 (m) ROCKET BODY
COSMOS 1275 DEB LEO 2025-04-15 10:41:31 0.0001421648 79.0 (m) DEBRIS
COSMOS 1275 DEB LEO 2024-09-26 22:47:51 0.001534176 304.0 (m) DEBRIS

Associated space launch

The NOAA K, L and M POES satellites begin the fifth generation of improved environmental monitoring in support of NOAA missions. The instrument payload has significant improvements and additions/deletions. The instrument changes have effected the spacecraft subsystems and data formats.

NOAA 16 DEB was lifted into orbit during the mission ‘Titan II SLV | NOAA 16’, on board a Titan II SLV space rocket.

The launch took place on Sept. 21, 2000, 10:22 a.m. from Space Launch Complex 4W.

For more information about the launch, click the button.

Launch to space Titan II SLV | NOAA 16
Titan II SLV | NOAA 16

Agency: N/A

Status: Launch Successful

Launch date: Sept. 21, 2000, 10:22 a.m. UTC

Rocket: Titan II SLV

Launch pad: Space Launch Complex 4W

Location: Vandenberg SFB, CA, USA

...

Latest news about this satellite

There are no fresh news available about this satellite. Check back as we update our databases every day.


Newsletter sign-up

Weekly statistics, charts and insights to help you stay on top of the space industry.